[[{"header":{"parameterUnit":"m.s-1","parameterCategory":1,"la1":30.2991,"la2":30.254,"lo1":-89.0895,"lo2":-89.0444,"dy":0.0017,"dx":0.0017,"nx":28,"ny":28,"refTime":"2025-03-22T09:00:00:Z","depth":0,"parameterNumber":2,"parameterNumberName":"U-component_of_WINDS"},"data":[0,0,0,0,0,0,0,0,0,0,0,0,0,0,0,0,0,0,0,0,0,0,0,0,0,0,0,0,0,0,0,0,0,0,0,0,0,0,0,0,0,0,0,0,0,0,0,0,0,0,0,0,0,0,0,0,0,0,-0.8868,-0.8867,0,-0.8815,-0.8814,-0.8813,-0.8797,-0.8798,-0.8798,-0.8798,-0.8739,-0.8738,-0.8736,0,0,0,0,0,0,0,0,0,0,0,0,0,-0.8954,-0.8953,-0.8868,-0.8867,-0.8867,-0.8815,-0.8814,-0.8813,-0.8797,-0.8798,-0.8798,-0.8798,-0.874,-0.8738,-0.8736,0,0,0,0,0,0,0,0,0,0,0,0,0,-0.891,-0.8952,-0.8868,-0.8853,-0.8851,-0.8815,-0.8814,-0.8813,-0.8797,-0.8798,-0.8798,-0.8798,-0.8741,-0.8738,-0.8735,-0.871,0,0,-0.8727,-0.8726,0,0,0,0,0,0,0,0,-0.8913,-0.8907,-0.8856,-0.8854,-0.8851,-0.8813,-0.8823,-0.8778,-0.8797,-0.8817,-0.8798,-0.8799,-0.8763,-0.8759,-0.8748,-0.8708,-0.8705,-0.8727,-0.8725,-0.8724,-0.8723,0,0,0,0,0,0,0,-0.8916,-0.8909,-0.8847,-0.8855,-0.8852,-0.8848,-0.8842,-0.8814,-0.8788,-0.8816,-0.8814,-0.8808,-0.8762,-0.875,-0.8746,-0.8704,-0.8727,-0.8725,-0.8723,-0.8722,-0.8642,-0.8642,0,0,0,0,0,0,-0.8922,-0.8912,-0.8849,-0.8845,-0.8884,-0.8846,-0.8839,-0.8825,-0.8789,-0.8784,-0.8808,-0.8808,-0.8755,-0.8749,-0.8744,-0.8713,-0.8724,-0.8722,-0.872,-0.8643,-0.8642,-0.8642,0,0,0,0,0,0,-0.8924,-0.8916,-0.8851,-0.8878,-0.887,-0.8844,-0.8828,-0.8824,-0.8812,-0.8783,-0.8778,-0.8801,-0.8755,-0.8748,-0.872,-0.8711,-0.872,-0.8718,-0.8643,-0.8643,-0.8642,-0.8651,0,0,0,0,0,0,-0.8926,-0.8917,-0.8908,-0.8878,-0.8868,-0.8827,-0.8827,-0.8822,-0.8808,-0.8807,-0.8775,-0.877,-0.8755,-0.8724,-0.8717,-0.8707,-0.8716,-0.8644,-0.8643,-0.8642,-0.8651,-0.865,-0.865,0,0,0,0,0,-0.893,-0.8911,-0.8907,-0.89,-0.8856,-0.8827,-0.8821,-0.8805,-0.8807,-0.8797,-0.8779,-0.8771,-0.8713,-0.8721,-0.8713,-0.8703,-0.8644,-0.8643,-0.8642,-0.8651,-0.8651,-0.865,0,0,0,0,0,0,-0.8938,-0.8907,-0.8902,-0.8874,-0.8854,-0.8824,-0.8811,-0.8804,-0.8782,-0.8782,-0.8762,-0.8755,-0.8728,-0.8712,-0.8721,-0.8677,-0.8679,-0.8676,-0.8688,-0.8687,-0.8687,-0.8691,-0.8713,0,0,0,0,0,-0.8937,-0.8917,-0.8891,-0.8868,-0.8858,-0.8837,-0.8823,-0.8813,-0.8791,-0.8781,-0.8761,-0.8739,-0.8716,-0.8701,-0.8678,-0.8649,-0.8642,-0.8638,-0.8638,-0.8638,-0.8635,-0.862,-0.8618,-0.8638,-0.8638,-0.8638,0,0,-0.8934,-0.8915,-0.8903,-0.8869,-0.8852,-0.8832,-0.8829,-0.8807,-0.8792,-0.8777,-0.875,-0.8735,-0.8708,-0.868,-0.8667,-0.8667,-0.8629,-0.8636,-0.8636,-0.8634,-0.8619,-0.8617,-0.8615,-0.8638,-0.8638,-0.8638,0,0,-0.8918,-0.8901,-0.8881,-0.8865,-0.884,-0.8826,-0.8822,-0.8794,-0.8784,-0.8757,-0.8746,-0.8727,-0.8687,-0.867,-0.8655,-0.8636,-0.8628,-0.8629,-0.8625,-0.8611,-0.8609,-0.8608,-0.8601,-0.8599,-0.8627,-0.8627,-0.8627,0,-0.8917,-0.8886,-0.8871,-0.8851,-0.8837,-0.8825,-0.8805,-0.8789,-0.8758,-0.8748,-0.8749,-0.87,-0.8682,-0.865,-0.8646,-0.8634,-0.8628,-0.8631,-0.8611,-0.8609,-0.8608,-0.8601,-0.8599,-0.8627,-0.8627,-0.8627,-0.8627,0,-0.8886,-0.8866,-0.8852,-0.8824,-0.8809,-0.8788,-0.877,-0.8756,-0.8748,-0.8734,-0.8707,-0.8685,-0.8658,-0.865,-0.864,-0.8617,-0.8618,-0.8615,-0.8616,-0.8606,-0.86,-0.8597,-0.8627,-0.8627,-0.8627,-0.8627,0,0,-0.8872,-0.8838,-0.8834,-0.8822,-0.8795,-0.8778,-0.8757,-0.8733,-0.8721,-0.87,-0.8683,-0.8651,-0.8649,-0.8633,-0.8622,-0.8609,-0.8596,-0.8608,-0.8607,-0.8607,-0.857,-0.8572,-0.857,-0.8591,-0.8591,-0.859,-0.8572,0,-0.8853,-0.8817,-0.8804,-0.8774,-0.8755,-0.8745,-0.8727,-0.8709,-0.8696,-0.8677,-0.8662,-0.8641,-0.8639,-0.863,-0.8617,-0.86,-0.8588,-0.8602,-0.8574,-0.8573,-0.8581,-0.8566,-0.8568,-0.8552,-0.857,-0.8569,-0.8569,0,-0.8825,-0.8806,-0.8775,-0.8752,-0.8743,-0.8727,-0.8705,-0.8688,-0.8667,-0.8658,-0.8642,-0.8632,-0.861,-0.8614,-0.8583,-0.8593,-0.8581,-0.8571,-0.857,-0.8566,-0.857,-0.8562,-0.8546,-0.8544,-0.8565,-0.8565,-0.8565,0,-0.8818,-0.8785,-0.8762,-0.8752,-0.8724,-0.8714,-0.8702,-0.8681,-0.8668,-0.8648,-0.864,-0.8617,-0.8604,-0.8587,-0.8572,-0.8575,-0.8543,-0.8544,-0.8535,-0.8535,-0.8528,-0.8528,-0.851,-0.8521,-0.8521,-0.8521,-0.8521,0,-0.8798,-0.8779,-0.8759,-0.8745,-0.8724,-0.871,-0.8689,-0.8676,-0.8659,-0.8642,-0.8632,-0.8616,-0.8597,-0.8579,-0.8567,-0.8544,-0.8538,-0.853,-0.8527,-0.8531,-0.8532,-0.8522,-0.8523,-0.852,-0.852,-0.852,-0.8521,0,-0.8786,-0.8772,-0.8747,-0.8724,-0.8718,-0.8704,-0.8684,-0.867,-0.8658,-0.8637,-0.8631,-0.8611,-0.8589,-0.8573,-0.8544,-0.8536,-0.8512,-0.8508,-0.8519,-0.8517,-0.8509,-0.851,-0.8483,-0.8479,-0.8493,-0.8493,-0.8493,0,-0.8774,-0.876,-0.8736,-0.8725,-0.8714,-0.8695,-0.8682,-0.8668,-0.8655,-0.8632,-0.8621,-0.8599,-0.858,-0.8546,-0.8529,-0.8507,-0.8503,-0.8495,-0.8499,-0.8504,-0.8503,-0.8504,-0.8503,-0.8494,-0.8494,-0.8494,-0.8494,0,-0.8754,-0.8748,-0.873,-0.8711,-0.8697,-0.868,-0.8663,-0.8655,-0.8638,-0.8623,-0.8602,-0.8588,-0.856,-0.8539,-0.8516,-0.8503,-0.8496,-0.8493,-0.849,-0.8493,-0.8501,-0.8497,-0.8518,-0.8494,-0.8494,-0.8494,-0.8494,-0.8494,-0.8741,-0.8729,-0.8711,-0.8692,-0.8679,-0.8664,-0.865,-0.8637,-0.862,-0.8597,-0.859,-0.8568,-0.8549,-0.8518,-0.8505,-0.8487,-0.8487,-0.8482,-0.848,-0.8479,-0.848,-0.8504,-0.8483,-0.8483,-0.8483,-0.8483,-0.8483,0,-0.8721,-0.8709,-0.8692,-0.8671,-0.8656,-0.8653,-0.8635,-0.8623,-0.8604,-0.8587,-0.857,-0.8547,-0.8526,-0.8508,-0.8487,-0.8477,-0.8473,-0.8472,-0.8472,-0.8469,-0.8481,-0.8487,-0.8475,-0.8475,-0.8475,-0.8475,-0.8475,-0.8475,-0.8708,-0.8687,-0.868,-0.8653,-0.8641,-0.8621,-0.8611,-0.8598,-0.8585,-0.8559,-0.8543,-0.8532,-0.8515,-0.8493,-0.8474,-0.8469,-0.8462,-0.8461,-0.8456,-0.8467,-0.8468,-0.8469,-0.8474,-0.846,-0.846,-0.8445,-0.8445,-0.8445]},{"header":{"parameterUnit":"m.s-1","parameterCategory":1,"la1":30.2991,"la2":30.254,"lo1":-89.0895,"lo2":-89.0444,"dy":0.0017,"dx":0.0017,"nx":28,"ny":28,"refTime":"2025-03-22T09:00:00:Z","depth":0,"parameterNumber":3,"parameterNumberName":"V-component_of_WINDS"},"data":[0,0,0,0,0,0,0,0,0,0,0,0,0,0,0,0,0,0,0,0,0,0,0,0,0,0,0,0,0,0,0,0,0,0,0,0,0,0,0,0,0,0,0,0,0,0,0,0,0,0,0,0,0,0,0,0,0,0,2.9155,2.9156,0,2.9288,2.929,2.9291,2.9235,2.9232,2.9228,2.9225,2.9354,2.936,2.9366,0,0,0,0,0,0,0,0,0,0,0,0,0,2.8844,2.885,2.9155,2.9156,2.9158,2.9288,2.929,2.9292,2.9235,2.9231,2.9228,2.9224,2.9351,2.9359,2.9367,0,0,0,0,0,0,0,0,0,0,0,0,0,2.8978,2.8852,2.9154,2.9146,2.9146,2.9288,2.929,2.9292,2.9236,2.9231,2.9227,2.9222,2.9349,2.9358,2.9368,2.9523,0,0,2.9397,2.9401,0,0,0,0,0,0,0,0,2.8971,2.899,2.9145,2.9147,2.9148,2.924,2.9227,2.9369,2.9237,2.9202,2.9225,2.922,2.9319,2.9331,2.9366,2.9528,2.9534,2.9398,2.9404,2.9408,2.941,0,0,0,0,0,0,0,2.8961,2.8984,2.9207,2.9148,2.9149,2.9133,2.9147,2.9254,2.9285,2.9205,2.9201,2.9218,2.9319,2.9357,2.9369,2.9536,2.9398,2.9406,2.9412,2.9416,2.9834,2.9839,0,0,0,0,0,0,2.8953,2.8976,2.9203,2.9211,2.9046,2.9143,2.9158,2.9215,2.9284,2.929,2.9222,2.9215,2.9343,2.9358,2.9373,2.9561,2.9408,2.9417,2.9422,2.9829,2.9836,2.9841,0,0,0,0,0,0,2.8947,2.8974,2.9198,2.9093,2.912,2.9153,2.9218,2.922,2.9259,2.9297,2.9302,2.9256,2.934,2.9359,2.9487,2.9565,2.9421,2.943,2.9823,2.9831,2.9838,2.9937,0,0,0,0,0,0,2.8938,2.8972,2.9033,2.9095,2.9126,2.9312,2.9222,2.9226,2.9276,2.9268,2.933,2.9336,2.9338,2.9473,2.9497,2.9575,2.9437,2.9816,2.9826,2.9836,2.9927,2.9947,2.9965,0,0,0,0,0,2.8927,2.9052,2.9036,2.9064,2.9203,2.9316,2.9334,2.9336,2.9283,2.9343,2.9368,2.9334,2.9552,2.9487,2.9512,2.9595,2.9811,2.9823,2.9835,2.9918,2.9943,2.9965,0,0,0,0,0,0,2.8994,2.906,2.9043,2.9192,2.925,2.9307,2.9383,2.9362,2.9433,2.9422,2.9418,2.9433,2.9565,2.9592,2.9518,2.975,2.9673,2.9691,2.9728,2.9752,2.977,2.9761,2.9445,0,0,0,0,0,2.9028,2.9117,2.9168,2.9295,2.9325,2.935,2.9399,2.9396,2.9454,2.9476,2.9511,2.9566,2.9647,2.9701,2.9777,2.993,2.9943,3.0,3.0019,3.0034,3.005,3.0135,3.0161,2.9881,2.9881,2.9881,0,0,2.9095,2.9142,2.9198,2.931,2.9354,2.9445,2.937,2.9468,2.9535,2.949,2.9615,2.9642,2.9703,2.9845,2.9909,2.9872,3.0131,3.005,3.0062,3.0069,3.015,3.0177,3.02,2.9889,2.9888,2.9886,0,0,2.9266,2.931,2.9422,2.9469,2.9538,2.9554,2.9581,2.9642,2.966,2.9785,2.9754,2.9832,2.9971,3.0018,3.0059,3.025,3.0222,3.0275,3.0374,3.0457,3.0479,3.0499,3.0569,3.0594,3.029,3.029,3.0291,0,2.934,2.9479,2.9481,2.9585,2.9635,2.9602,2.9716,2.9759,2.9849,2.9883,2.9841,3.0018,3.0056,3.021,3.0257,3.0291,3.0321,3.0268,3.0477,3.0496,3.0514,3.0581,3.0607,3.0297,3.0296,3.0295,3.0295,0,2.9568,2.9665,2.9746,2.9839,2.9898,3.0005,3.0023,3.0082,3.0074,3.0094,3.0222,3.0268,3.0355,3.039,3.0382,3.0543,3.0519,3.0477,3.04,3.0548,3.061,3.0635,3.0306,3.0303,3.0301,3.03,0,0,2.9784,2.9879,2.9909,2.9952,3.0027,3.01,3.0205,3.0294,3.0346,3.0408,3.0497,3.0617,3.058,3.0627,3.0623,3.0696,3.0847,3.0645,3.0647,3.0683,3.103,3.1063,3.1092,3.0829,3.0833,3.0837,3.1025,0,2.9962,3.0151,3.0158,3.033,3.042,3.0391,3.0483,3.0538,3.056,3.0637,3.0659,3.0746,3.0689,3.0718,3.0788,3.0814,3.0917,3.08,3.091,3.0914,3.0898,3.1124,3.1159,3.1334,3.105,3.1054,3.1057,0,3.0194,3.027,3.0452,3.0518,3.0555,3.0638,3.0721,3.0796,3.0857,3.0868,3.0923,3.0909,3.1016,3.0935,3.1082,3.1003,3.1048,3.1067,3.1074,3.1085,3.0995,3.1143,3.139,3.1417,3.1095,3.1092,3.1089,0,3.0337,3.0483,3.0612,3.0648,3.0727,3.0787,3.0821,3.0879,3.0932,3.1003,3.1038,3.1119,3.1164,3.1226,3.1235,3.1175,3.1383,3.1303,3.1394,3.1395,3.144,3.1437,3.1699,3.1467,3.1467,3.1466,3.1465,0,3.0536,3.0649,3.0677,3.0757,3.0882,3.0888,3.1012,3.1041,3.1093,3.1176,3.1154,3.1232,3.1238,3.1318,3.1325,3.1447,3.1466,3.1477,3.1478,3.148,3.1479,3.151,3.1499,3.1473,3.1471,3.147,3.1469,0,3.0716,3.0739,3.0879,3.0943,3.0962,3.1052,3.1106,3.1181,3.1201,3.1307,3.1332,3.1363,3.1456,3.1471,3.1579,3.1583,3.173,3.1717,3.1711,3.1709,3.1801,3.1793,3.2093,3.2133,3.1873,3.1876,3.1878,0,3.0842,3.0929,3.1005,3.1061,3.11,3.119,3.1246,3.1255,3.1313,3.1392,3.1458,3.155,3.1624,3.1773,3.1804,3.1887,3.1877,3.1976,3.1889,3.189,3.1881,3.1876,3.1885,3.1993,3.1996,3.1998,3.2,0,3.1064,3.1073,3.1156,3.1245,3.1313,3.1382,3.1447,3.1493,3.151,3.1577,3.1674,3.1732,3.1845,3.1936,3.2019,3.2052,3.203,3.2028,3.2054,3.2058,3.2052,3.2058,3.1758,3.2021,3.2019,3.2017,3.2016,3.2015,3.1223,3.13,3.1367,3.1461,3.1511,3.1573,3.1649,3.168,3.1762,3.1858,3.1856,3.1964,3.2023,3.2133,3.2173,3.2255,3.2222,3.2259,3.2269,3.2279,3.2289,3.2038,3.2269,3.2269,3.2268,3.2268,3.2267,0,3.1446,3.1488,3.1575,3.1669,3.1743,3.1718,3.179,3.1852,3.1948,3.2008,3.2083,3.2195,3.2284,3.2323,3.241,3.2469,3.2461,3.2492,3.2488,3.2496,3.2312,3.2282,3.2497,3.2497,3.2497,3.2497,3.2497,3.2497,3.1571,3.1701,3.1718,3.1873,3.1913,3.2021,3.2064,3.2121,3.2169,3.2297,3.2373,3.2399,3.245,3.2542,3.2622,3.2631,3.2665,3.2701,3.2705,3.2532,3.2509,3.2487,3.2459,3.2708,3.2708,3.2883,3.2885,3.2886]}]]